Tracking 25620 objects as of 18-May-2022
HD Live streaming from Space Station
objects crossing your sky now

DELTA 1 DEB *

Track DELTA 1 DEB * now!
10-day predictions


NORAD ID: 6213
Int'l Code: 1966-087E
Perigee: 1,173.1 km
Apogee: 1,254.0 km
Inclination: 101.8 °
Period: 109.6 minutes
Semi major axis: 7584 km
RCS: 0.0157 m2 (small)
Launch date: October 2, 1966
Source: United States (US)
Launch site: AIR FORCE WESTERN TEST RANGE (AFWTR)

Note: This is SATELLITE DEBRIS
aabbcc
Your satellite tracking list
Your tracking list is empty




NASA's NSSDC Master Catalog

Two Line Element Set (TLE):
1  6213U 66087E   22137.98269980  .00003262  00000-0  88869-2 0  9999
2  6213 101.7708 319.1015 0053337 228.6371 285.0543 13.14346615599642
Source of the keplerian elements: AFSPC